Tracking 29090 objects as of 15-Jul-2024
HD Live streaming from Space Station
objects crossing your sky now

STARLINK-4017

Track STARLINK-4017 now!
10-day predictions
STARLINK-4017 is classified as:


NORAD ID: 52682
Int'l Code: 2022-053AC
Perigee: 545.9 km
Apogee: 547.9 km
Inclination: 53.2 °
Period: 95.4 minutes
Semi major axis: 6917 km
RCS: Unknown
Launch date: May 18, 2022
Source: United States (US)
Launch site: AIR FORCE EASTERN TEST RANGE (AFETR)
Your satellite tracking list
Your tracking list is empty




NASA's NSSDC Master Catalog

Two Line Element Set (TLE):
1 52682U 22053AC  24196.77133887  .00007420  00000-0  48390-3 0  9991
2 52682  53.2167 330.7264 0001392 104.8333 255.2813 15.08831752120134
Source of the keplerian elements: AFSPC